Home > Weather > Altdorf > Past weeks

Flag for Switzerland Past Weather in Altdorf, Uri, Switzerland — Yesterday and Last 2 Weeks

Now
77 °F

Mild.


Feels Like: 79 °F
Forecast: 61 / 87 °F
Wind: 2 mph from East

Location: Altdorf

Current Time: Jul 29, 2016 at 8:07:15 PM

Latest Report: Jul 29, 2016 at 7:00 PM


Visibility: N/A

Pressure: 29.92 "Hg

Humidity: 59%

Dew Point: 62 °F

Location of AltdorfLocation

Past Weather in Altdorf — Graph

°F

Altdorf Temperature Yesterday

Maximum temperature yesterday: 76 °F (at 3:00 PM)
Minimum temperature yesterday: 57 °F (at 5:00 AM)
Average temperature yesterday: 66 °F

High & Low Weather Summary for the Past Weeks

 TemperatureHumidityPressure
High88 °F (Jul 20, 6:00 PM)96% (Jul 23, 5:00 AM)30.38 "Hg (Jul 23, 5:00 AM)
Low45 °F (Jul 16, 5:00 AM)35% (Jul 20, 6:00 PM)29.89 "Hg (Jul 20, 6:00 PM)
Average67 °F77%30.10 "Hg
* Reported Jul 14 6:00 PM — Jul 29 6:00 PM, Altdorf, Weather by CustomWeather, © 2016

Note: Actual official high and low records may vary slightly from our data, if they occured in-between our weather recording intervals... More about our weather records

Advertising

Altdorf Weather History for the Previous 24 Hours

Scroll right to see more
 ConditionsComfort  
Time TempWeatherWind HumidityBarometerVisibility
6:00 PM
Fri, Jul 29
78 °FWarm.2 mph57%29.92 "HgN/A
5:00 PM76 °FScattered clouds.7 mph59%29.92 "Hg17 mi
4:00 PM79 °FWarm.8 mph55%29.92 "HgN/A
3:00 PM78 °FWarm.12 mph54%29.93 "HgN/A
2:00 PM78 °FScattered clouds.13 mph55%29.94 "Hg16 mi
1:00 PM75 °FMild.3 mph63%29.97 "HgN/A
12:00 PM73 °FMild.6 mph71%29.99 "HgN/A
11:00 AM69 °FScattered clouds.2 mph75%30.01 "Hg16 mi
10:00 AM67 °FMild.2 mph81%30.03 "HgN/A
9:00 AM67 °FMild.2 mph85%30.04 "HgN/A
8:00 AM65 °FPartly sunny.1 mph85%30.05 "Hg16 mi
7:00 AM63 °FMild.No wind94%30.05 "HgN/A
6:00 AM64 °FMild.1 mph87%30.05 "HgN/A
5:00 AM62 °FMild.1 mph95%30.05 "HgN/A
4:00 AM62 °FMild.1 mph95%30.06 "HgN/A
3:00 AM64 °FMild.1 mph92%30.05 "HgN/A
2:00 AM64 °FMild.1 mph94%30.05 "HgN/A
1:00 AM65 °FMild.1 mph91%30.05 "HgN/A
12:00 AM68 °FMild.1 mph75%30.03 "HgN/A
11:00 PM
Thu, Jul 28
65 °FOvercast.2 mph89%30.04 "Hg16 mi
10:00 PM68 °FMild.No wind78%30.03 "HgN/A
9:00 PM70 °FMild.1 mph75%30.01 "HgN/A
8:00 PM72 °FOvercast.1 mph71%29.99 "Hg16 mi
Weather by CustomWeather, © 2016

See weather overviewHow to use our weather pages